[[[{"header":{"parameterUnit":"kt","parameterCategory":2,"dx":1,"dy":1,"la1":30.253999710083008,"la2":30.299108505249023,"lo1":-89.0895004272461,"lo2":-89.04439544677734,"nx":28,"ny":28,"refTime":"2022-10-02T21:00:00:Z","depth":0,"parameterNumber":1,"parameterNumberName":"U-component_of_WINDS"},"data":[-7.573,-7.5983,-7.5947,-7.622,-7.6234,-7.6414,-7.6468,-7.6533,-7.6576,-7.679,-7.6906,-7.6898,-7.6928,-7.706,-7.7186,-7.718,-7.7236,-7.7352,-7.7324,-7.6835,-7.6765,-7.6699,-7.6634,-7.7365,-7.7366,-7.7835,-7.7839,-7.7842,-7.5375,-7.5391,-7.5524,-7.5629,-7.5743,-7.5609,-7.5683,-7.5788,-7.5954,-7.601,-7.6122,-7.6308,-7.6451,-7.6441,-7.6573,-7.6693,-7.6638,-7.6731,-7.6721,-7.6728,-7.6205,-7.6137,-7.6774,-7.6773,-7.6773,-7.6773,-7.6773,-7.6773,-7.4718,-7.4872,-7.4912,-7.5057,-7.5099,-7.5171,-7.5312,-7.5294,-7.5426,-7.5557,-7.5488,-7.5677,-7.5726,-7.5867,-7.5907,-7.6053,-7.5943,-7.6035,-7.6058,-7.6082,-7.6114,-7.544,-7.6075,-7.6073,-7.6071,-7.6069,-7.6068,0,-7.4225,-7.4183,-7.4308,-7.4423,-7.4526,-7.4613,-7.4685,-7.4772,-7.4671,-7.4785,-7.4946,-7.5033,-7.5206,-7.5355,-7.5471,-7.5491,-7.5365,-7.5349,-7.5411,-7.5446,-7.5463,-7.5457,-7.4604,-7.5331,-7.5324,-7.5319,-7.5316,-7.5313,-7.3559,-7.3743,-7.3766,-7.386,-7.3889,-7.4042,-7.4125,-7.4022,-7.4116,-7.4191,-7.4333,-7.448,-7.4592,-7.486,-7.484,-7.4971,-7.491,-7.5192,-7.4929,-7.4956,-7.4914,-7.4904,-7.4922,-7.5245,-7.5253,-7.5261,-7.5266,0,-7.3187,-7.3123,-7.3396,-7.34,-7.3407,-7.3607,-7.3611,-7.3762,-7.3728,-7.3931,-7.3973,-7.3922,-7.4083,-7.4016,-7.4189,-7.4149,-7.448,-7.4418,-7.4461,-7.4445,-7.469,-7.4668,-7.5496,-7.5599,-7.4841,-7.4848,-7.4855,0,-7.2593,-7.2839,-7.2728,-7.289,-7.316,-7.3047,-7.3319,-7.3316,-7.3353,-7.3512,-7.3355,-7.3508,-7.3398,-7.3542,-7.3485,-7.3743,-7.3775,-7.376,-7.3742,-7.3775,-7.3777,-7.3824,-7.3788,-7.3694,-7.369,-7.3686,-7.3683,0,-7.2017,-7.2246,-7.2508,-7.255,-7.258,-7.2706,-7.2725,-7.2765,-7.2849,-7.2947,-7.3,-7.3124,-7.3192,-7.3291,-7.3215,-7.304,-7.3529,-7.3272,-7.3514,-7.3516,-7.3626,-7.362,-7.437,-7.3677,-7.3676,-7.3675,-7.3673,0,-7.1526,-7.1623,-7.2014,-7.2033,-7.2098,-7.2272,-7.2382,-7.2515,-7.257,-7.2543,-7.2619,-7.2506,-7.2725,-7.2475,-7.2776,-7.2568,-7.2646,-7.2651,-7.2667,-7.2682,-7.2404,-7.2836,-7.3556,-7.3629,-7.2697,-7.2689,-7.2682,0,-7.0884,-7.1259,-7.1162,-7.1537,-7.17,-7.1508,-7.17,-7.1752,-7.1731,-7.1868,-7.1845,-7.2004,-7.1803,-7.1843,-7.2001,-7.1985,-7.2255,-7.1946,-7.215,-7.2158,-7.2139,-7.2802,-7.2925,-7.3406,-7.2577,-7.2588,-7.2596,0,-7.0377,-7.0407,-7.0481,-7.0522,-7.0571,-7.0707,-7.0928,-7.1058,-7.1154,-7.1231,-7.1413,-7.1635,-7.1491,-7.1561,-7.1481,-7.165,-7.2069,-7.1474,-7.1474,-7.1584,-7.2518,-7.2634,-7.2715,-7.1979,-7.1992,-7.2002,-7.2512,0,-6.9649,-6.9827,-7.0022,-7.0121,-7.0215,-7.0445,-7.0367,-7.0477,-7.0388,-7.0359,-7.0628,-7.0655,-7.0791,-7.0864,-7.0781,-7.1188,-7.1109,-7.0955,-7.0707,-7.1142,-7.1308,-7.1376,-7.0465,-7.0457,-7.045,-7.0445,0,0,-6.905,-6.9303,-6.9189,-6.9397,-6.9468,-6.9264,-6.9517,-6.9565,-6.9667,-6.9722,-6.9581,-6.9899,-6.9928,-7.0262,-7.0392,-7.0448,-7.0514,-7.0365,-7.0935,-7.099,-7.1041,-7.122,-7.1292,-7.0433,-7.0431,-7.0429,-7.0427,0,-6.8766,-6.8794,-6.9044,-6.9086,-6.9144,-6.9099,-6.916,-6.9183,-6.9176,-6.9437,-6.9267,-6.9419,-6.9678,-6.9729,-6.979,-7.0322,-7.0187,-7.037,-7.068,-7.0872,-7.0936,-7.0992,-7.1181,-7.1251,-7.0411,-7.0412,-7.0412,0,-6.8253,-6.8267,-6.8378,-6.853,-6.8567,-6.8741,-6.8459,-6.8655,-6.8784,-6.8554,-6.8816,-6.8822,-6.8885,-6.9211,-6.9355,-6.9232,-6.9894,-6.9672,-6.9711,-6.9726,-6.9908,-6.9985,-7.0053,-6.9154,-6.9149,-6.9146,0,0,-6.8019,-6.8183,-6.8165,-6.8463,-6.8498,-6.8436,-6.852,-6.844,-6.8498,-6.8523,-6.8526,-6.8591,-6.8739,-6.8839,-6.8974,-6.9344,-6.9348,-6.952,-6.9579,-6.9628,-6.967,-6.9865,-6.9941,-6.913,-6.913,-6.9129,0,0,-6.7907,-6.7896,-6.7795,-6.8131,-6.8191,-6.8194,-6.8381,-6.8258,-6.8371,-6.8335,-6.8212,-6.8224,-6.8527,-6.8541,-6.8342,-6.8885,-6.864,-6.8686,-6.8865,-6.8939,-6.8997,-6.8988,-6.806,0,0,0,0,0,-6.7575,-6.7896,-6.7805,-6.7849,-6.8041,-6.8245,-6.8269,-6.8172,-6.7999,-6.8149,-6.8132,-6.7981,-6.8408,-6.8229,-6.8277,-6.85,-6.8931,-6.8966,-6.9,-6.9317,-6.9395,-6.9461,0,0,0,0,0,0,-6.7592,-6.7646,-6.7796,-6.7815,-6.7856,-6.8232,-6.7919,-6.7901,-6.7981,-6.7948,-6.7989,-6.7982,-6.7906,-6.8198,-6.8243,-6.8456,-6.8044,-6.8945,-6.8975,-6.9002,-6.9344,-6.9408,-6.9462,0,0,0,0,0,-6.7605,-6.7648,-6.7982,-6.7809,-6.7846,-6.7793,-6.7906,-6.7888,-6.7949,-6.7923,-6.7911,-6.7868,-6.7914,-6.7945,-6.8224,-6.8438,-6.8013,-6.803,-6.8964,-6.8988,-6.9009,-6.9375,0,0,0,0,0,0,-6.7614,-6.7635,-6.7987,-6.7994,-6.7679,-6.777,-6.7781,-6.7878,-6.7916,-6.7908,-6.7794,-6.7768,-6.7925,-6.7946,-6.7972,-6.8438,-6.7987,-6.8004,-6.8015,-6.8982,-6.9001,-6.9017,0,0,0,0,0,0,-6.7611,-6.7643,-6.7991,-6.7833,-6.7821,-6.775,-6.7759,-6.7983,-6.792,-6.7785,-6.7764,-6.7782,-6.7888,-6.795,-6.7968,-6.8321,-6.7967,-6.7984,-6.7995,-6.8003,-6.8998,-6.9012,0,0,0,0,0,0,-6.7622,-6.765,-6.783,-6.7821,-6.781,-6.7889,-6.7945,-6.8149,-6.7781,-6.7787,-6.7745,-6.7729,-6.7896,-6.7912,-6.7967,-6.8313,-6.8319,-6.7968,-6.7979,-6.7987,-6.7992,0,0,0,0,0,0,0,-6.7632,-6.7469,-6.7941,-6.7812,-6.7802,-6.8065,-6.8067,-6.8069,-6.7777,-6.7763,-6.7749,-6.7736,-6.7873,-6.7891,-6.7909,-6.8307,0,0,-6.7966,-6.7974,0,0,0,0,0,0,0,0,-6.7455,-6.7466,-6.7941,-6.7943,-6.7945,-6.8066,-6.8067,-6.8069,-6.7775,-6.7763,-6.7752,-6.7741,-6.7878,-6.7892,-6.7907,0,0,0,0,0,0,0,0,0,0,0,0,0,0,0,-6.7942,-6.7943,0,-6.8066,-6.8067,-6.8069,-6.7773,-6.7764,-6.7754,-6.7745,-6.7882,-6.7894,-6.7906,0,0,0,0,0,0,0,0,0,0,0,0,0,0,0,0,0,0,0,0,0,0,0,0,0,0,0,0,0,0,0,0,0,0,0,0,0,0,0,0,0,0,0,0,0,0,0,0,0,0,0,0,0,0,0,0,0,0,0,0,0,0,0,0,0,0,0,0,0]}],[{"header":{"parameterUnit":"kt","parameterCategory":2,"dx":1,"dy":1,"la1":30.253999710083008,"la2":30.299108505249023,"lo1":-89.0895004272461,"lo2":-89.04439544677734,"nx":28,"ny":28,"refTime":"2022-10-02T21:00:00:Z","depth":0,"parameterNumber":2,"parameterNumberName":"V-component_of_WINDS"},"data":[-4.525,-4.5263,-4.5263,-4.5276,-4.5278,-4.5287,-4.529,-4.5293,-4.5296,-4.5305,-4.531,-4.5311,-4.5313,-4.5317,-4.5322,-4.5322,-4.5323,-4.5326,-4.5325,-4.5313,-4.5311,-4.5309,-4.5307,-4.5327,-4.5327,-4.5338,-4.5338,-4.5338,-4.5236,-4.5239,-4.5247,-4.5255,-4.5261,-4.5258,-4.5263,-4.5268,-4.5276,-4.528,-4.5285,-4.5293,-4.5299,-4.5301,-4.5306,-4.5309,-4.5308,-4.531,-4.531,-4.531,-4.5297,-4.5294,-4.5311,-4.5311,-4.5311,-4.5311,-4.5311,-4.5311,-4.521,-4.5218,-4.5224,-4.5233,-4.5237,-4.5242,-4.5249,-4.5251,-4.5258,-4.5266,-4.5265,-4.5274,-4.5277,-4.5285,-4.5287,-4.5292,-4.5289,-4.5292,-4.5293,-4.5293,-4.5293,-4.5273,-4.5294,-4.5294,-4.5294,-4.5294,-4.5293,0,-4.5191,-4.5191,-4.52,-4.5208,-4.5215,-4.5222,-4.5228,-4.5233,-4.5233,-4.524,-4.5248,-4.5253,-4.5262,-4.5269,-4.5275,-4.5277,-4.5274,-4.5274,-4.5276,-4.5276,-4.5273,-4.5273,-4.5249,-4.5274,-4.5273,-4.5273,-4.5273,-4.5273,-4.5162,-4.5173,-4.5181,-4.5187,-4.5191,-4.5201,-4.5207,-4.5208,-4.5213,-4.5221,-4.5227,-4.5235,-4.5242,-4.5255,-4.5256,-4.5263,-4.5261,-4.527,-4.5262,-4.5261,-4.5259,-4.5258,-4.5258,-4.5271,-4.5272,-4.5272,-4.5272,0,-4.5145,-4.5149,-4.5166,-4.5173,-4.5175,-4.5186,-4.5191,-4.5199,-4.5201,-4.5212,-4.5215,-4.5218,-4.5226,-4.5227,-4.5237,-4.5237,-4.5249,-4.5248,-4.5247,-4.5246,-4.5253,-4.5251,-4.5278,-4.528,-4.5261,-4.5262,-4.5262,0,-4.5122,-4.5137,-4.514,-4.515,-4.5165,-4.5167,-4.5181,-4.5185,-4.519,-4.5199,-4.5197,-4.5205,-4.5206,-4.5213,-4.5214,-4.5224,-4.5227,-4.5227,-4.5226,-4.5226,-4.5226,-4.5229,-4.5227,-4.5228,-4.5228,-4.5228,-4.5228,0,-4.5094,-4.5115,-4.5132,-4.5137,-4.5148,-4.5155,-4.5159,-4.5167,-4.5173,-4.5181,-4.5184,-4.5194,-4.5199,-4.5205,-4.5205,-4.52,-4.5219,-4.5212,-4.5219,-4.5219,-4.5223,-4.5223,-4.5246,-4.5228,-4.5228,-4.5228,-4.5228,0,-4.5076,-4.5087,-4.5112,-4.512,-4.5125,-4.5137,-4.5147,-4.5157,-4.5165,-4.5166,-4.5173,-4.5172,-4.5184,-4.5176,-4.5191,-4.5183,-4.5187,-4.5189,-4.519,-4.519,-4.5181,-4.5192,-4.5216,-4.5218,-4.519,-4.519,-4.519,0,-4.5041,-4.5069,-4.5072,-4.5096,-4.5109,-4.5106,-4.5119,-4.5127,-4.513,-4.514,-4.5143,-4.5155,-4.515,-4.5154,-4.5161,-4.5165,-4.5175,-4.5164,-4.5174,-4.5174,-4.5171,-4.5193,-4.5196,-4.5211,-4.5186,-4.5186,-4.5186,0,-4.5016,-4.5032,-4.5037,-4.5042,-4.5056,-4.5068,-4.5083,-4.5096,-4.5102,-4.5113,-4.5124,-4.5142,-4.5137,-4.5145,-4.5146,-4.5154,-4.5168,-4.5149,-4.5149,-4.515,-4.5185,-4.5187,-4.519,-4.5166,-4.5167,-4.5167,-4.5183,0,-4.4982,-4.4999,-4.5012,-4.5028,-4.5038,-4.5056,-4.5061,-4.507,-4.507,-4.5074,-4.5092,-4.5101,-4.5114,-4.5119,-4.512,-4.5139,-4.5136,-4.5132,-4.5124,-4.5139,-4.5145,-4.5147,-4.5116,-4.5115,-4.5115,-4.5115,0,0,-4.4947,-4.4972,-4.4977,-4.4993,-4.5002,-4.5001,-4.5018,-4.5027,-4.5044,-4.5049,-4.5045,-4.5072,-4.508,-4.5101,-4.5106,-4.5113,-4.5115,-4.5111,-4.5133,-4.5135,-4.5136,-4.5142,-4.5144,-4.5115,-4.5115,-4.5115,-4.5115,0,-4.4936,-4.4948,-4.4967,-4.4976,-4.4991,-4.4995,-4.5,-4.5014,-4.5018,-4.5038,-4.5036,-4.5047,-4.5071,-4.5078,-4.5085,-4.5108,-4.5106,-4.5112,-4.5123,-4.5131,-4.5133,-4.5135,-4.5141,-4.5143,-4.5114,-4.5114,-4.5114,0,-4.491,-4.4921,-4.4932,-4.4956,-4.4966,-4.4981,-4.4974,-4.4992,-4.5002,-4.5001,-4.502,-4.5026,-4.5038,-4.5058,-4.5068,-4.5064,-4.5097,-4.5089,-4.5091,-4.5092,-4.51,-4.5102,-4.5105,-4.5074,-4.5074,-4.5073,0,0,-4.4899,-4.4917,-4.4931,-4.4954,-4.4961,-4.4969,-4.4979,-4.4981,-4.4993,-4.4998,-4.5007,-4.5017,-4.503,-4.5039,-4.5053,-4.5075,-4.5077,-4.5084,-4.5086,-4.5088,-4.5089,-4.5098,-4.5101,-4.5073,-4.5073,-4.5073,0,0,-4.4895,-4.4912,-4.4912,-4.4941,-4.4953,-4.4968,-4.4981,-4.498,-4.4993,-4.4992,-4.4996,-4.4999,-4.5019,-4.5026,-4.5017,-4.5049,-4.5042,-4.5044,-4.5045,-4.5047,-4.5049,-4.5047,-4.5011,0,0,0,0,0,-4.4888,-4.491,-4.4909,-4.4915,-4.4947,-4.4968,-4.4972,-4.4977,-4.497,-4.498,-4.4986,-4.4985,-4.5021,-4.5013,-4.5018,-4.5028,-4.5065,-4.5066,-4.5068,-4.5074,-4.5076,-4.5079,0,0,0,0,0,0,-4.489,-4.4898,-4.4909,-4.4925,-4.4932,-4.4967,-4.4957,-4.4959,-4.4969,-4.4969,-4.4983,-4.4985,-4.4989,-4.5011,-4.5015,-4.5025,-4.5009,-4.5065,-4.5067,-4.5068,-4.5075,-4.5077,-4.5079,0,0,0,0,0,-4.4892,-4.4898,-4.4947,-4.4925,-4.4931,-4.4942,-4.4957,-4.4958,-4.4966,-4.4977,-4.4979,-4.4969,-4.4989,-4.4993,-4.5014,-4.5023,-4.5006,-4.5008,-4.5066,-4.5067,-4.5068,-4.5076,0,0,0,0,0,0,-4.4893,-4.4899,-4.4949,-4.4951,-4.4918,-4.4941,-4.4945,-4.4957,-4.4974,-4.4976,-4.4963,-4.4962,-4.499,-4.4993,-4.4996,-4.5022,-4.5004,-4.5006,-4.5007,-4.5067,-4.5068,-4.5068,0,0,0,0,0,0,-4.4896,-4.4901,-4.495,-4.4941,-4.4942,-4.4939,-4.4942,-4.4961,-4.4974,-4.4959,-4.4959,-4.4962,-4.4985,-4.4992,-4.4995,-4.5024,-4.5002,-4.5004,-4.5005,-4.5006,-4.5068,-4.5068,0,0,0,0,0,0,-4.4898,-4.4902,-4.494,-4.4941,-4.4942,-4.4964,-4.4955,-4.4986,-4.4968,-4.4958,-4.4966,-4.4965,-4.4984,-4.4987,-4.4994,-4.5022,-4.5023,-4.5002,-4.5003,-4.5004,-4.5005,0,0,0,0,0,0,0,-4.4899,-4.4871,-4.4937,-4.4941,-4.4942,-4.4968,-4.4969,-4.4969,-4.4968,-4.4967,-4.4966,-4.4966,-4.4993,-4.4995,-4.4997,-4.5021,0,0,-4.5002,-4.5003,0,0,0,0,0,0,0,0,-4.4869,-4.4871,-4.4937,-4.4938,-4.4938,-4.4969,-4.4969,-4.4969,-4.4968,-4.4967,-4.4967,-4.4966,-4.4994,-4.4995,-4.4997,0,0,0,0,0,0,0,0,0,0,0,0,0,0,0,-4.4937,-4.4938,0,-4.4969,-4.4969,-4.4969,-4.4967,-4.4967,-4.4967,-4.4966,-4.4994,-4.4995,-4.4997,0,0,0,0,0,0,0,0,0,0,0,0,0,0,0,0,0,0,0,0,0,0,0,0,0,0,0,0,0,0,0,0,0,0,0,0,0,0,0,0,0,0,0,0,0,0,0,0,0,0,0,0,0,0,0,0,0,0,0,0,0,0,0,0,0,0,0,0,0]}]]]